Wetterstation Oberdrees
Wetterdaten: aktuell Sonntag, 04.12.2022 04:10
Datum Zeit Temp. A. Feuchte A. Luftdruck Regen Wind Richtung Richtung Taupunkt Windchill Windben
04.12.2022 04:10 1,1 C 84 % 1017,6 hPa 0,0 l/m 1,6 km/h (1 Bft) O-NO 71 -1,3 C 1,1 C 6,4 km/h (2 Bft)
04.12.2022 04:05 1,2 C 84 % 1017,5 hPa 0,0 l/m 1,6 km/h (1 Bft) O 99 -1,2 C 1,2 C 4,8 km/h (1 Bft)
04.12.2022 04:00 1,2 C 84 % 1017,5 hPa 0,0 l/m 2,3 km/h (1 Bft) O 80 -1,2 C 1,2 C 6,4 km/h (2 Bft)
04.12.2022 03:55 1,2 C 85 % 1017,5 hPa 0,0 l/m 2,7 km/h (1 Bft) O-NO 74 -1,0 C 1,2 C 8,0 km/h (2 Bft)
04.12.2022 03:50 1,3 C 85 % 1017,5 hPa 0,0 l/m 1,6 km/h (1 Bft) NO 56 -0,9 C 1,3 C 6,4 km/h (2 Bft)
04.12.2022 03:45 1,3 C 85 % 1017,5 hPa 0,0 l/m 1,4 km/h (1 Bft) SO 136 -0,9 C 1,3 C 4,8 km/h (1 Bft)
04.12.2022 03:40 1,3 C 85 % 1017,6 hPa 0,0 l/m 1,4 km/h (1 Bft) SO 128 -0,9 C 1,3 C 6,4 km/h (2 Bft)
04.12.2022 03:35 1,3 C 85 % 1017,5 hPa 0,0 l/m 2,7 km/h (1 Bft) O 101 -0,9 C 1,3 C 11,3 km/h (2 Bft)
04.12.2022 03:30 1,3 C 84 % 1017,6 hPa 0,0 l/m 3,3 km/h (1 Bft) O-SO 115 -1,1 C 1,3 C 9,7 km/h (2 Bft)
04.12.2022 03:25 1,3 C 84 % 1017,5 hPa 0,0 l/m 4,0 km/h (1 Bft) O-SO 103 -1,1 C 1,3 C 11,3 km/h (2 Bft)
04.12.2022 03:20 1,3 C 84 % 1017,6 hPa 0,0 l/m 3,7 km/h (1 Bft) O 86 -1,1 C 1,3 C 11,3 km/h (2 Bft)
04.12.2022 03:15 1,3 C 84 % 1017,5 hPa 0,0 l/m 4,3 km/h (1 Bft) O 101 -1,1 C 1,3 C 11,3 km/h (2 Bft)
04.12.2022 03:10 1,4 C 84 % 1017,5 hPa 0,0 l/m 3,6 km/h (1 Bft) O-SO 112 -1,0 C 1,4 C 12,9 km/h (3 Bft)
04.12.2022 03:05 1,4 C 84 % 1017,5 hPa 0,0 l/m 2,1 km/h (1 Bft) O 85 -1,0 C 1,4 C 6,4 km/h (2 Bft)
04.12.2022 03:00 1,4 C 84 % 1017,5 hPa 0,0 l/m 1,8 km/h (1 Bft) SO 130 -1,0 C 1,4 C 6,4 km/h (2 Bft)
04.12.2022 02:55 1,4 C 84 % 1017,4 hPa 0,0 l/m 2,6 km/h (1 Bft) O-NO 60 -1,0 C 1,4 C 11,3 km/h (2 Bft)
04.12.2022 02:50 1,4 C 84 % 1017,5 hPa 0,0 l/m 2,5 km/h (1 Bft) O-NO 70 -1,0 C 1,4 C 14,5 km/h (3 Bft)
04.12.2022 02:45 1,5 C 84 % 1017,5 hPa 0,0 l/m 2,4 km/h (1 Bft) SO 132 -0,9 C 1,5 C 8,0 km/h (2 Bft)
04.12.2022 02:40 1,6 C 85 % 1017,5 hPa 0,0 l/m 2,7 km/h (1 Bft) O-NO 74 -0,6 C 1,6 C 6,4 km/h (2 Bft)
04.12.2022 02:35 1,6 C 85 % 1017,5 hPa 0,0 l/m 1,7 km/h (1 Bft) O 99 -0,6 C 1,6 C 4,8 km/h (1 Bft)
04.12.2022 02:30 1,6 C 85 % 1017,6 hPa 0,0 l/m 1,8 km/h (1 Bft) O-SO 109 -0,6 C 1,6 C 6,4 km/h (2 Bft)
04.12.2022 02:25 1,6 C 86 % 1017,6 hPa 0,0 l/m 2,7 km/h (1 Bft) O-SO 117 -0,5 C 1,6 C 4,8 km/h (1 Bft)
04.12.2022 02:20 1,6 C 85 % 1017,6 hPa 0,0 l/m 2,2 km/h (1 Bft) O-SO 103 -0,6 C 1,6 C 6,4 km/h (2 Bft)
04.12.2022 02:15 1,6 C 85 % 1017,6 hPa 0,0 l/m 4,3 km/h (1 Bft) O 98 -0,6 C 1,6 C 11,3 km/h (2 Bft)
04.12.2022 02:10 1,6 C 85 % 1017,7 hPa 0,0 l/m 3,6 km/h (1 Bft) O-SO 112 -0,6 C 1,6 C 9,7 km/h (2 Bft)
04.12.2022 02:05 1,6 C 85 % 1017,6 hPa 0,0 l/m 3,2 km/h (1 Bft) O-SO 116 -0,6 C 1,6 C 9,7 km/h (2 Bft)
04.12.2022 02:00 1,6 C 85 % 1017,6 hPa 0,0 l/m 4,0 km/h (1 Bft) O 100 -0,6 C 1,6 C 12,9 km/h (3 Bft)
04.12.2022 01:55 1,6 C 85 % 1017,6 hPa 0,0 l/m 2,2 km/h (1 Bft) O 98 -0,6 C 1,6 C 8,0 km/h (2 Bft)
04.12.2022 01:50 1,6 C 85 % 1017,7 hPa 0,0 l/m 3,1 km/h (1 Bft) S-SO 167 -0,6 C 1,6 C 11,3 km/h (2 Bft)
04.12.2022 01:45 1,6 C 86 % 1017,7 hPa 0,0 l/m 3,1 km/h (1 Bft) O 85 -0,5 C 1,6 C 11,3 km/h (2 Bft)
04.12.2022 01:40 1,7 C 86 % 1017,8 hPa 0,0 l/m 3,7 km/h (1 Bft) SO 132 -0,4 C 1,7 C 9,7 km/h (2 Bft)
04.12.2022 01:35 1,6 C 86 % 1017,7 hPa 0,0 l/m 3,6 km/h (1 Bft) O-SO 109 -0,5 C 1,6 C 9,7 km/h (2 Bft)
04.12.2022 01:30 1,6 C 86 % 1017,8 hPa 0,0 l/m 3,9 km/h (1 Bft) O-SO 123 -0,5 C 1,6 C 14,5 km/h (3 Bft)
04.12.2022 01:25 1,6 C 86 % 1017,8 hPa 0,0 l/m 4,5 km/h (1 Bft) O-SO 115 -0,5 C 1,6 C 11,3 km/h (2 Bft)
04.12.2022 01:20 1,6 C 87 % 1017,8 hPa 0,0 l/m 2,5 km/h (1 Bft) O-SO 109 -0,3 C 1,6 C 6,4 km/h (2 Bft)
04.12.2022 01:15 1,6 C 87 % 1017,8 hPa 0,0 l/m 2,5 km/h (1 Bft) SO 133 -0,3 C 1,6 C 6,4 km/h (2 Bft)
04.12.2022 01:10 1,6 C 88 % 1017,9 hPa 0,0 l/m 1,6 km/h (1 Bft) NO 42 -0,2 C 1,6 C 6,4 km/h (2 Bft)
04.12.2022 01:05 1,6 C 88 % 1017,9 hPa 0,0 l/m 1,9 km/h (1 Bft) O 101 -0,2 C 1,6 C 6,4 km/h (2 Bft)
04.12.2022 01:00 1,6 C 88 % 1017,8 hPa 0,0 l/m 2,5 km/h (1 Bft) SO 125 -0,2 C 1,6 C 9,7 km/h (2 Bft)
04.12.2022 00:55 1,6 C 88 % 1017,9 hPa 0,0 l/m 0,7 km/h (0 Bft) O-SO 109 -0,2 C 1,6 C 4,8 km/h (1 Bft)
04.12.2022 00:50 1,6 C 88 % 1018,0 hPa 0,0 l/m 0,9 km/h (0 Bft) O-SO 108 -0,2 C 1,6 C 3,2 km/h (1 Bft)
04.12.2022 00:45 1,6 C 88 % 1018,0 hPa 0,0 l/m 2,0 km/h (1 Bft) O-SO 108 -0,2 C 1,6 C 6,4 km/h (2 Bft)
04.12.2022 00:40 1,6 C 88 % 1018,1 hPa 0,0 l/m 1,5 km/h (1 Bft) SO 129 -0,2 C 1,6 C 4,8 km/h (1 Bft)
04.12.2022 00:35 1,6 C 88 % 1018,0 hPa 0,0 l/m 1,2 km/h (1 Bft) O-SO 123 -0,2 C 1,6 C 4,8 km/h (1 Bft)
04.12.2022 00:30 1,6 C 88 % 1018,0 hPa 0,0 l/m 2,4 km/h (1 Bft) O-SO 122 -0,2 C 1,6 C 4,8 km/h (1 Bft)
04.12.2022 00:25 1,6 C 88 % 1018,0 hPa 0,0 l/m 1,9 km/h (1 Bft) O-SO 107 -0,2 C 1,6 C 9,7 km/h (2 Bft)
04.12.2022 00:20 1,6 C 88 % 1018,0 hPa 0,0 l/m 1,9 km/h (1 Bft) O-SO 119 -0,2 C 1,6 C 6,4 km/h (2 Bft)
04.12.2022 00:15 1,6 C 88 % 1018,0 hPa 0,0 l/m 1,4 km/h (1 Bft) O-SO 118 -0,2 C 1,6 C 3,2 km/h (1 Bft)
04.12.2022 00:10 1,6 C 88 % 1018,1 hPa 0,0 l/m 2,0 km/h (1 Bft) O-SO 115 -0,2 C 1,6 C 9,7 km/h (2 Bft)
04.12.2022 00:05 1,6 C 88 % 1018,1 hPa 0,0 l/m 2,5 km/h (1 Bft) SO 125 -0,2 C 1,6 C 6,4 km/h (2 Bft)
04.12.2022 00:00 1,6 C 88 % 1018,2 hPa 0,0 l/m 1,9 km/h (1 Bft) S-SO 153 -0,2 C 1,6 C 4,8 km/h (1 Bft)
03.12.2022 23:55 1,6 C 88 % 1018,2 hPa 0,0 l/m 1,8 km/h (1 Bft) S-SO 155 -0,2 C 1,6 C 4,8 km/h (1 Bft)
03.12.2022 23:50 1,6 C 88 % 1018,3 hPa 0,0 l/m 2,2 km/h (1 Bft) SO 128 -0,2 C 1,6 C 6,4 km/h (2 Bft)
03.12.2022 23:45 1,6 C 88 % 1018,2 hPa 0,0 l/m 1,6 km/h (1 Bft) O-SO 115 -0,2 C 1,6 C 6,4 km/h (2 Bft)
03.12.2022 23:40 1,6 C 88 % 1018,4 hPa 0,0 l/m 2,0 km/h (1 Bft) O-SO 113 -0,2 C 1,6 C 4,8 km/h (1 Bft)
03.12.2022 23:35 1,6 C 87 % 1018,5 hPa 0,0 l/m 1,9 km/h (1 Bft) O-SO 117 -0,3 C 1,6 C 4,8 km/h (1 Bft)
03.12.2022 23:30 1,6 C 87 % 1018,5 hPa 0,0 l/m 0,0 km/h (0 Bft) O-SO 117 -0,3 C 1,6 C 0,0 km/h (0 Bft)
03.12.2022 23:25 1,6 C 87 % 1018,5 hPa 0,0 l/m 0,8 km/h (0 Bft) O-SO 118 -0,3 C 1,6 C 3,2 km/h (1 Bft)
03.12.2022 23:20 1,6 C 87 % 1018,6 hPa 0,0 l/m 1,8 km/h (1 Bft) O-SO 114 -0,3 C 1,6 C 4,8 km/h (1 Bft)
03.12.2022 23:15 1,6 C 87 % 1018,6 hPa 0,0 l/m 1,1 km/h (1 Bft) O-SO 123 -0,3 C 1,6 C 4,8 km/h (1 Bft)
03.12.2022 23:10 1,6 C 87 % 1018,6 hPa 0,0 l/m 1,6 km/h (1 Bft) O-SO 119 -0,3 C 1,6 C 3,2 km/h (1 Bft)
03.12.2022 23:05 1,7 C 87 % 1018,5 hPa 0,0 l/m 1,8 km/h (1 Bft) O-SO 120 -0,2 C 1,7 C 6,4 km/h (2 Bft)
03.12.2022 23:00 1,7 C 87 % 1018,6 hPa 0,0 l/m 2,4 km/h (1 Bft) O-SO 117 -0,2 C 1,7 C 11,3 km/h (2 Bft)
03.12.2022 22:55 1,7 C 87 % 1018,6 hPa 0,0 l/m 1,4 km/h (1 Bft) O-SO 117 -0,2 C 1,7 C 4,8 km/h (1 Bft)
03.12.2022 22:50 1,7 C 87 % 1018,7 hPa 0,0 l/m 2,2 km/h (1 Bft) O-SO 123 -0,2 C 1,7 C 6,4 km/h (2 Bft)
03.12.2022 22:45 1,7 C 87 % 1018,6 hPa 0,0 l/m 1,9 km/h (1 Bft) O-SO 122 -0,2 C 1,7 C 4,8 km/h (1 Bft)
03.12.2022 22:40 1,7 C 87 % 1018,5 hPa 0,0 l/m 1,2 km/h (1 Bft) SO 125 -0,2 C 1,7 C 3,2 km/h (1 Bft)
03.12.2022 22:35 1,7 C 87 % 1018,7 hPa 0,0 l/m 1,9 km/h (1 Bft) O-SO 123 -0,2 C 1,7 C 4,8 km/h (1 Bft)
03.12.2022 22:30 1,7 C 87 % 1018,6 hPa 0,0 l/m 2,2 km/h (1 Bft) SO 142 -0,2 C 1,7 C 6,4 km/h (2 Bft)
03.12.2022 22:25 1,7 C 87 % 1018,6 hPa 0,0 l/m 2,2 km/h (1 Bft) SO 132 -0,2 C 1,7 C 4,8 km/h (1 Bft)
03.12.2022 22:20 1,7 C 87 % 1018,7 hPa 0,0 l/m 2,9 km/h (1 Bft) SO 125 -0,2 C 1,7 C 6,4 km/h (2 Bft)
03.12.2022 22:15 1,7 C 87 % 1018,7 hPa 0,0 l/m 1,9 km/h (1 Bft) O-SO 117 -0,2 C 1,7 C 6,4 km/h (2 Bft)
03.12.2022 22:10 1,7 C 87 % 1018,6 hPa 0,0 l/m 1,3 km/h (1 Bft) O-SO 121 -0,2 C 1,7 C 3,2 km/h (1 Bft)
03.12.2022 22:05 1,7 C 87 % 1018,7 hPa 0,0 l/m 1,1 km/h (1 Bft) O-SO 121 -0,2 C 1,7 C 4,8 km/h (1 Bft)
03.12.2022 22:00 1,7 C 87 % 1018,7 hPa 0,0 l/m 1,3 km/h (1 Bft) SO 124 -0,2 C 1,7 C 4,8 km/h (1 Bft)
03.12.2022 21:55 1,7 C 87 % 1018,7 hPa 0,0 l/m 2,7 km/h (1 Bft) SO 124 -0,2 C 1,7 C 6,4 km/h (2 Bft)
03.12.2022 21:50 1,7 C 87 % 1018,7 hPa 0,0 l/m 2,2 km/h (1 Bft) O-SO 121 -0,2 C 1,7 C 6,4 km/h (2 Bft)
03.12.2022 21:45 1,7 C 87 % 1018,7 hPa 0,0 l/m 2,3 km/h (1 Bft) O-SO 120 -0,2 C 1,7 C 4,8 km/h (1 Bft)
03.12.2022 21:40 1,7 C 87 % 1018,8 hPa 0,0 l/m 2,7 km/h (1 Bft) O-SO 115 -0,2 C 1,7 C 6,4 km/h (2 Bft)
03.12.2022 21:35 1,7 C 87 % 1018,8 hPa 0,0 l/m 2,2 km/h (1 Bft) O-SO 122 -0,2 C 1,7 C 3,2 km/h (1 Bft)
03.12.2022 21:30 1,7 C 87 % 1018,7 hPa 0,0 l/m 2,1 km/h (1 Bft) O-SO 121 -0,2 C 1,7 C 8,0 km/h (2 Bft)
03.12.2022 21:25 1,7 C 87 % 1018,7 hPa 0,0 l/m 0,9 km/h (0 Bft) SO 125 -0,2 C 1,7 C 3,2 km/h (1 Bft)
03.12.2022 21:20 1,7 C 87 % 1018,8 hPa 0,0 l/m 1,6 km/h (1 Bft) SO 125 -0,2 C 1,7 C 4,8 km/h (1 Bft)
03.12.2022 21:15 1,7 C 87 % 1018,8 hPa 0,0 l/m 1,9 km/h (1 Bft) O-SO 121 -0,2 C 1,7 C 4,8 km/h (1 Bft)
03.12.2022 21:10 1,7 C 87 % 1018,8 hPa 0,0 l/m 2,7 km/h (1 Bft) O-SO 121 -0,2 C 1,7 C 6,4 km/h (2 Bft)
03.12.2022 21:05 1,7 C 87 % 1018,9 hPa 0,0 l/m 2,1 km/h (1 Bft) O-SO 121 -0,2 C 1,7 C 6,4 km/h (2 Bft)
03.12.2022 21:00 1,8 C 87 % 1018,9 hPa 0,0 l/m 3,3 km/h (1 Bft) O-SO 117 -0,1 C 1,8 C 11,3 km/h (2 Bft)
03.12.2022 20:55 1,8 C 87 % 1019,0 hPa 0,0 l/m 4,0 km/h (1 Bft) O-SO 119 -0,1 C 1,8 C 9,7 km/h (2 Bft)
03.12.2022 20:50 1,8 C 87 % 1018,9 hPa 0,0 l/m 3,2 km/h (1 Bft) O-SO 107 -0,1 C 1,8 C 8,0 km/h (2 Bft)
03.12.2022 20:45 1,8 C 87 % 1018,9 hPa 0,0 l/m 3,0 km/h (1 Bft) O-SO 117 -0,1 C 1,8 C 9,7 km/h (2 Bft)
03.12.2022 20:40 1,8 C 88 % 1018,9 hPa 0,0 l/m 2,8 km/h (1 Bft) O-SO 120 0,0 C 1,8 C 6,4 km/h (2 Bft)
03.12.2022 20:35 1,8 C 88 % 1018,9 hPa 0,0 l/m 1,8 km/h (1 Bft) SO 134 0,0 C 1,8 C 4,8 km/h (1 Bft)
03.12.2022 20:30 1,8 C 88 % 1018,8 hPa 0,0 l/m 1,7 km/h (1 Bft) O-SO 122 0,0 C 1,8 C 4,8 km/h (1 Bft)
03.12.2022 20:25 1,8 C 88 % 1018,9 hPa 0,0 l/m 1,7 km/h (1 Bft) O-SO 115 0,0 C 1,8 C 4,8 km/h (1 Bft)
03.12.2022 20:20 1,8 C 88 % 1018,9 hPa 0,0 l/m 2,2 km/h (1 Bft) O-SO 110 0,0 C 1,8 C 9,7 km/h (2 Bft)
03.12.2022 20:15 1,8 C 88 % 1018,9 hPa 0,0 l/m 1,9 km/h (1 Bft) O-SO 115 0,0 C 1,8 C 6,4 km/h (2 Bft)
03.12.2022 20:10 1,8 C 88 % 1018,8 hPa 0,0 l/m 0,8 km/h (0 Bft) O-SO 116 0,0 C 1,8 C 4,8 km/h (1 Bft)
03.12.2022 20:05 1,8 C 88 % 1018,9 hPa 0,0 l/m 0,7 km/h (0 Bft) O-SO 115 0,0 C 1,8 C 3,2 km/h (1 Bft)
03.12.2022 20:00 1,8 C 88 % 1018,8 hPa 0,0 l/m 1,6 km/h (1 Bft) O-SO 114 0,0 C 1,8 C 4,8 km/h (1 Bft)
03.12.2022 19:55 1,8 C 88 % 1018,8 hPa 0,0 l/m 1,0 km/h (0 Bft) O-SO 113 0,0 C 1,8 C 4,8 km/h (1 Bft)
03.12.2022 19:50 1,8 C 88 % 1018,9 hPa 0,0 l/m 1,5 km/h (1 Bft) O-SO 111 0,0 C 1,8 C 6,4 km/h (2 Bft)
03.12.2022 19:45 1,8 C 88 % 1019,0 hPa 0,0 l/m 0,9 km/h (0 Bft) O-SO 121 0,0 C 1,8 C 3,2 km/h (1 Bft)
03.12.2022 19:40 1,9 C 88 % 1019,1 hPa 0,0 l/m 1,6 km/h (1 Bft) O-SO 121 0,1 C 1,9 C 6,4 km/h (2 Bft)
03.12.2022 19:35 1,8 C 88 % 1019,0 hPa 0,0 l/m 0,4 km/h (0 Bft) O 84 0,0 C 1,8 C 3,2 km/h (1 Bft)
03.12.2022 19:30 1,8 C 88 % 1019,0 hPa 0,0 l/m 0,8 km/h (0 Bft) O 84 0,0 C 1,8 C 4,8 km/h (1 Bft)
03.12.2022 19:25 1,9 C 88 % 1019,1 hPa 0,0 l/m 0,3 km/h (0 Bft) O 83 0,1 C 1,9 C 3,2 km/h (1 Bft)
03.12.2022 19:20 1,8 C 88 % 1019,1 hPa 0,0 l/m 0,2 km/h (0 Bft) O 83 0,0 C 1,8 C 3,2 km/h (1 Bft)
03.12.2022 19:15 1,8 C 88 % 1019,1 hPa 0,0 l/m 0,5 km/h (0 Bft) O 80 0,0 C 1,8 C 4,8 km/h (1 Bft)
03.12.2022 19:10 1,8 C 88 % 1019,1 hPa 0,0 l/m 1,4 km/h (1 Bft) O 79 0,0 C 1,8 C 3,2 km/h (1 Bft)
03.12.2022 19:05 1,8 C 88 % 1019,1 hPa 0,0 l/m 1,0 km/h (0 Bft) O 82 0,0 C 1,8 C 3,2 km/h (1 Bft)
03.12.2022 19:00 1,8 C 88 % 1019,1 hPa 0,0 l/m 0,3 km/h (0 Bft) O 84 0,0 C 1,8 C 1,6 km/h (1 Bft)
03.12.2022 18:55 1,8 C 88 % 1019,2 hPa 0,0 l/m 0,9 km/h (0 Bft) O 84 0,0 C 1,8 C 4,8 km/h (1 Bft)
03.12.2022 18:50 1,8 C 88 % 1019,1 hPa 0,0 l/m 0,4 km/h (0 Bft) O 84 0,0 C 1,8 C 3,2 km/h (1 Bft)
03.12.2022 18:45 1,8 C 88 % 1019,2 hPa 0,0 l/m 1,0 km/h (0 Bft) O 84 0,0 C 1,8 C 4,8 km/h (1 Bft)
03.12.2022 18:40 1,8 C 88 % 1019,2 hPa 0,0 l/m 1,3 km/h (1 Bft) O 85 0,0 C 1,8 C 4,8 km/h (1 Bft)
03.12.2022 18:35 1,8 C 88 % 1019,2 hPa 0,0 l/m 1,5 km/h (1 Bft) O 82 0,0 C 1,8 C 4,8 km/h (1 Bft)
03.12.2022 18:30 1,9 C 88 % 1019,2 hPa 0,0 l/m 1,4 km/h (1 Bft) O-NO 78 0,1 C 1,9 C 6,4 km/h (2 Bft)
03.12.2022 18:25 1,9 C 88 % 1019,3 hPa 0,0 l/m 1,0 km/h (0 Bft) O-NO 78 0,1 C 1,9 C 4,8 km/h (1 Bft)
03.12.2022 18:20 1,9 C 88 % 1019,3 hPa 0,0 l/m 0,1 km/h (0 Bft) O-NO 77 0,1 C 1,9 C 1,6 km/h (1 Bft)
03.12.2022 18:15 1,9 C 88 % 1019,3 hPa 0,0 l/m 0,0 km/h (0 Bft) O-NO 77 0,1 C 1,9 C 1,6 km/h (1 Bft)
03.12.2022 18:10 1,9 C 88 % 1019,3 hPa 0,0 l/m 0,0 km/h (0 Bft) O-NO 74 0,1 C 1,9 C 0,0 km/h (0 Bft)
03.12.2022 18:05 1,9 C 87 % 1019,4 hPa 0,0 l/m 0,0 km/h (0 Bft) O-NO 74 -0,0 C 1,9 C 0,0 km/h (0 Bft)
03.12.2022 18:00 1,9 C 87 % 1019,5 hPa 0,0 l/m 0,6 km/h (0 Bft) O-NO 74 -0,0 C 1,9 C 3,2 km/h (1 Bft)
03.12.2022 17:55 1,9 C 87 % 1019,4 hPa 0,0 l/m 0,6 km/h (0 Bft) O-NO 73 -0,0 C 1,9 C 3,2 km/h (1 Bft)
03.12.2022 17:50 1,9 C 87 % 1019,4 hPa 0,0 l/m 0,8 km/h (0 Bft) O-NO 73 -0,0 C 1,9 C 3,2 km/h (1 Bft)
03.12.2022 17:45 1,9 C 87 % 1019,5 hPa 0,0 l/m 1,5 km/h (1 Bft) O-NO 73 -0,0 C 1,9 C 4,8 km/h (1 Bft)
03.12.2022 17:40 1,9 C 87 % 1019,5 hPa 0,0 l/m 1,4 km/h (1 Bft) O-NO 69 -0,0 C 1,9 C 4,8 km/h (1 Bft)
03.12.2022 17:35 1,9 C 87 % 1019,5 hPa 0,0 l/m 0,8 km/h (0 Bft) O-NO 66 -0,0 C 1,9 C 3,2 km/h (1 Bft)
03.12.2022 17:30 1,9 C 87 % 1019,4 hPa 0,0 l/m 0,4 km/h (0 Bft) O-NO 66 -0,0 C 1,9 C 3,2 km/h (1 Bft)
03.12.2022 17:25 1,9 C 87 % 1019,5 hPa 0,0 l/m 0,4 km/h (0 Bft) O-NO 65 -0,0 C 1,9 C 3,2 km/h (1 Bft)
03.12.2022 17:20 1,9 C 87 % 1019,5 hPa 0,0 l/m 0,2 km/h (0 Bft) O-NO 65 -0,0 C 1,9 C 1,6 km/h (1 Bft)
03.12.2022 17:15 1,9 C 87 % 1019,5 hPa 0,0 l/m 1,0 km/h (0 Bft) O-NO 65 -0,0 C 1,9 C 4,8 km/h (1 Bft)
03.12.2022 17:10 1,9 C 87 % 1019,4 hPa 0,0 l/m 0,6 km/h (0 Bft) O-NO 64 -0,0 C 1,9 C 3,2 km/h (1 Bft)
03.12.2022 17:05 2,0 C 87 % 1019,4 hPa 0,0 l/m 0,8 km/h (0 Bft) O-NO 63 0,1 C 2,0 C 4,8 km/h (1 Bft)
03.12.2022 17:00 1,9 C 87 % 1019,4 hPa 0,0 l/m 0,3 km/h (0 Bft) O-NO 63 -0,0 C 1,9 C 1,6 km/h (1 Bft)
03.12.2022 16:55 2,0 C 86 % 1019,4 hPa 0,0 l/m 0,6 km/h (0 Bft) O-NO 61 -0,1 C 2,0 C 3,2 km/h (1 Bft)
03.12.2022 16:50 2,0 C 86 % 1019,4 hPa 0,0 l/m 1,0 km/h (0 Bft) O-NO 57 -0,1 C 2,0 C 3,2 km/h (1 Bft)
03.12.2022 16:45 2,0 C 87 % 1019,5 hPa 0,0 l/m 0,3 km/h (0 Bft) O 84 0,1 C 2,0 C 3,2 km/h (1 Bft)
03.12.2022 16:40 2,1 C 86 % 1019,4 hPa 0,0 l/m 0,3 km/h (0 Bft) O 84 0,0 C 2,1 C 3,2 km/h (1 Bft)
03.12.2022 16:35 2,0 C 86 % 1019,5 hPa 0,0 l/m 0,8 km/h (0 Bft) O 84 -0,1 C 2,0 C 3,2 km/h (1 Bft)
03.12.2022 16:30 2,1 C 86 % 1019,5 hPa 0,0 l/m 0,8 km/h (0 Bft) O 84 0,0 C 2,1 C 4,8 km/h (1 Bft)
03.12.2022 16:25 2,1 C 86 % 1019,5 hPa 0,0 l/m 0,1 km/h (0 Bft) O 80 0,0 C 2,1 C 1,6 km/h (1 Bft)
03.12.2022 16:20 2,1 C 86 % 1019,5 hPa 0,0 l/m 0,0 km/h (0 Bft) O 80 0,0 C 2,1 C 1,6 km/h (1 Bft)
03.12.2022 16:15 2,1 C 86 % 1019,4 hPa 0,0 l/m 0,3 km/h (0 Bft) O 80 0,0 C 2,1 C 1,6 km/h (1 Bft)
03.12.2022 16:10 2,1 C 86 % 1019,3 hPa 0,0 l/m 0,7 km/h (0 Bft) O-NO 78 0,0 C 2,1 C 3,2 km/h (1 Bft)
03.12.2022 16:05 2,1 C 86 % 1019,4 hPa 0,0 l/m 0,3 km/h (0 Bft) O 79 0,0 C 2,1 C 3,2 km/h (1 Bft)
03.12.2022 16:00 2,1 C 86 % 1019,3 hPa 0,0 l/m 0,5 km/h (0 Bft) O-NO 76 0,0 C 2,1 C 3,2 km/h (1 Bft)
03.12.2022 15:55 2,1 C 86 % 1019,4 hPa 0,0 l/m 1,4 km/h (1 Bft) O-NO 74 0,0 C 2,1 C 6,4 km/h (2 Bft)
03.12.2022 15:50 2,1 C 86 % 1019,3 hPa 0,0 l/m 1,6 km/h (1 Bft) SO 128 0,0 C 2,1 C 4,8 km/h (1 Bft)
03.12.2022 15:45 2,1 C 85 % 1019,4 hPa 0,0 l/m 0,8 km/h (0 Bft) O-SO 121 -0,2 C 2,1 C 3,2 km/h (1 Bft)
03.12.2022 15:40 2,1 C 86 % 1019,4 hPa 0,0 l/m 0,9 km/h (0 Bft) O-SO 119 0,0 C 2,1 C 4,8 km/h (1 Bft)
03.12.2022 15:35 2,1 C 85 % 1019,4 hPa 0,0 l/m 1,4 km/h (1 Bft) O 92 -0,2 C 2,1 C 6,4 km/h (2 Bft)
03.12.2022 15:30 2,1 C 86 % 1019,4 hPa 0,0 l/m 1,3 km/h (1 Bft) O 86 0,0 C 2,1 C 6,4 km/h (2 Bft)
03.12.2022 15:25 2,1 C 85 % 1019,5 hPa 0,0 l/m 1,2 km/h (1 Bft) O-SO 117 -0,2 C 2,1 C 4,8 km/h (1 Bft)
03.12.2022 15:20 2,1 C 86 % 1019,5 hPa 0,0 l/m 0,7 km/h (0 Bft) O-SO 108 0,0 C 2,1 C 3,2 km/h (1 Bft)
03.12.2022 15:15 2,1 C 85 % 1019,6 hPa 0,0 l/m 1,3 km/h (1 Bft) O-SO 108 -0,2 C 2,1 C 4,8 km/h (1 Bft)
03.12.2022 15:10 2,1 C 85 % 1019,6 hPa 0,0 l/m 1,4 km/h (1 Bft) O 92 -0,2 C 2,1 C 6,4 km/h (2 Bft)
03.12.2022 15:05 2,1 C 85 % 1019,6 hPa 0,0 l/m 1,1 km/h (1 Bft) O-SO 121 -0,2 C 2,1 C 3,2 km/h (1 Bft)
03.12.2022 15:00 2,1 C 85 % 1019,6 hPa 0,0 l/m 1,6 km/h (1 Bft) SO 125 -0,2 C 2,1 C 4,8 km/h (1 Bft)
03.12.2022 14:55 2,1 C 85 % 1019,6 hPa 0,0 l/m 2,0 km/h (1 Bft) O-SO 117 -0,2 C 2,1 C 4,8 km/h (1 Bft)
03.12.2022 14:50 2,1 C 85 % 1019,6 hPa 0,0 l/m 2,3 km/h (1 Bft) O-SO 106 -0,2 C 2,1 C 6,4 km/h (2 Bft)
03.12.2022 14:45 2,1 C 85 % 1019,6 hPa 0,0 l/m 1,5 km/h (1 Bft) O-SO 114 -0,2 C 2,1 C 6,4 km/h (2 Bft)
03.12.2022 14:40 2,1 C 85 % 1019,5 hPa 0,0 l/m 2,0 km/h (1 Bft) O-SO 114 -0,2 C 2,1 C 9,7 km/h (2 Bft)
03.12.2022 14:35 2,1 C 85 % 1019,6 hPa 0,0 l/m 1,4 km/h (1 Bft) N 360 -0,2 C 2,1 C 6,4 km/h (2 Bft)
03.12.2022 14:30 2,1 C 85 % 1019,6 hPa 0,0 l/m 0,8 km/h (0 Bft) N 360 -0,2 C 2,1 C 3,2 km/h (1 Bft)
03.12.2022 14:25 2,1 C 85 % 1019,7 hPa 0,0 l/m 0,6 km/h (0 Bft) N 360 -0,2 C 2,1 C 3,2 km/h (1 Bft)
03.12.2022 14:20 2,1 C 85 % 1019,9 hPa 0,0 l/m 1,2 km/h (1 Bft) O-SO 111 -0,2 C 2,1 C 6,4 km/h (2 Bft)
03.12.2022 14:15 2,1 C 85 % 1019,9 hPa 0,0 l/m 2,4 km/h (1 Bft) O 100 -0,2 C 2,1 C 6,4 km/h (2 Bft)
03.12.2022 14:10 2,0 C 85 % 1019,9 hPa 0,0 l/m 0,7 km/h (0 Bft) O-SO 104 -0,3 C 2,0 C 4,8 km/h (1 Bft)
03.12.2022 14:05 2,0 C 85 % 1020,0 hPa 0,0 l/m 0,8 km/h (0 Bft) O-SO 105 -0,3 C 2,0 C 3,2 km/h (1 Bft)
03.12.2022 14:00 1,9 C 85 % 1020,0 hPa 0,0 l/m 1,0 km/h (0 Bft) O-SO 104 -0,3 C 1,9 C 3,2 km/h (1 Bft)
03.12.2022 13:55 2,0 C 85 % 1020,1 hPa 0,0 l/m 0,5 km/h (0 Bft) O-SO 104 -0,3 C 2,0 C 3,2 km/h (1 Bft)
03.12.2022 13:50 2,0 C 85 % 1020,1 hPa 0,0 l/m 1,2 km/h (1 Bft) O-SO 105 -0,3 C 2,0 C 6,4 km/h (2 Bft)
03.12.2022 13:45 1,9 C 85 % 1020,2 hPa 0,0 l/m 0,8 km/h (0 Bft) O 79 -0,3 C 1,9 C 3,2 km/h (1 Bft)
03.12.2022 13:40 2,0 C 85 % 1020,3 hPa 0,0 l/m 1,6 km/h (1 Bft) O 82 -0,3 C 2,0 C 6,4 km/h (2 Bft)
03.12.2022 13:35 1,9 C 85 % 1020,2 hPa 0,0 l/m 1,3 km/h (1 Bft) N 360 -0,3 C 1,9 C 6,4 km/h (2 Bft)
03.12.2022 13:30 1,9 C 85 % 1020,2 hPa 0,0 l/m 0,3 km/h (0 Bft) N 360 -0,3 C 1,9 C 1,6 km/h (1 Bft)
03.12.2022 13:25 1,9 C 85 % 1020,3 hPa 0,0 l/m 1,9 km/h (1 Bft) N 360 -0,3 C 1,9 C 8,0 km/h (2 Bft)
03.12.2022 13:20 1,9 C 85 % 1020,4 hPa 0,0 l/m 0,5 km/h (0 Bft) N 360 -0,3 C 1,9 C 3,2 km/h (1 Bft)
03.12.2022 13:15 1,9 C 85 % 1020,5 hPa 0,0 l/m 1,1 km/h (1 Bft) N 360 -0,3 C 1,9 C 4,8 km/h (1 Bft)
03.12.2022 13:10 1,8 C 85 % 1020,5 hPa 0,0 l/m 0,3 km/h (0 Bft) O-SO 113 -0,4 C 1,8 C 1,6 km/h (1 Bft)
03.12.2022 13:05 1,8 C 85 % 1020,5 hPa 0,0 l/m 1,2 km/h (1 Bft) O-SO 109 -0,4 C 1,8 C 6,4 km/h (2 Bft)
03.12.2022 13:00 1,8 C 85 % 1020,7 hPa 0,0 l/m 1,4 km/h (1 Bft) SO 128 -0,4 C 1,8 C 4,8 km/h (1 Bft)
03.12.2022 12:55 1,8 C 85 % 1020,6 hPa 0,0 l/m 2,3 km/h (1 Bft) O-SO 121 -0,4 C 1,8 C 9,7 km/h (2 Bft)
03.12.2022 12:50 1,8 C 85 % 1020,7 hPa 0,0 l/m 2,1 km/h (1 Bft) O-NO 69 -0,4 C 1,8 C 6,4 km/h (2 Bft)
03.12.2022 12:45 1,8 C 86 % 1020,7 hPa 0,0 l/m 1,2 km/h (1 Bft) N 360 -0,3 C 1,8 C 3,2 km/h (1 Bft)
03.12.2022 12:40 1,7 C 86 % 1020,7 hPa 0,0 l/m 0,8 km/h (0 Bft) N 360 -0,4 C 1,7 C 3,2 km/h (1 Bft)
03.12.2022 12:35 1,7 C 86 % 1020,7 hPa 0,0 l/m 1,3 km/h (1 Bft) N 360 -0,4 C 1,7 C 4,8 km/h (1 Bft)
03.12.2022 12:30 1,6 C 86 % 1020,7 hPa 0,0 l/m 1,7 km/h (1 Bft) N 360 -0,5 C 1,6 C 4,8 km/h (1 Bft)
03.12.2022 12:25 1,6 C 85 % 1020,7 hPa 0,0 l/m 1,7 km/h (1 Bft) N 360 -0,6 C 1,6 C 6,4 km/h (2 Bft)
03.12.2022 12:20 1,6 C 86 % 1020,8 hPa 0,0 l/m 2,0 km/h (1 Bft) N 360 -0,5 C 1,6 C 6,4 km/h (2 Bft)
03.12.2022 12:15 1,6 C 86 % 1020,8 hPa 0,0 l/m 2,5 km/h (1 Bft) N 360 -0,5 C 1,6 C 8,0 km/h (2 Bft)
03.12.2022 12:10 1,6 C 86 % 1020,9 hPa 0,0 l/m 0,6 km/h (0 Bft) N 360 -0,5 C 1,6 C 3,2 km/h (1 Bft)
03.12.2022 12:05 1,5 C 86 % 1021,0 hPa 0,0 l/m 1,1 km/h (1 Bft) N 360 -0,6 C 1,5 C 4,8 km/h (1 Bft)
03.12.2022 12:00 1,5 C 86 % 1021,0 hPa 0,0 l/m 1,4 km/h (1 Bft) N 360 -0,6 C 1,5 C 6,4 km/h (2 Bft)
03.12.2022 11:55 1,5 C 86 % 1021,1 hPa 0,0 l/m 0,2 km/h (0 Bft) O 92 -0,6 C 1,5 C 1,6 km/h (1 Bft)
03.12.2022 11:50 1,4 C 86 % 1021,2 hPa 0,0 l/m 0,6 km/h (0 Bft) N 360 -0,7 C 1,4 C 3,2 km/h (1 Bft)
03.12.2022 11:45 1,4 C 86 % 1021,2 hPa 0,0 l/m 1,6 km/h (1 Bft) N 360 -0,7 C 1,4 C 4,8 km/h (1 Bft)
03.12.2022 11:40 1,4 C 86 % 1021,3 hPa 0,0 l/m 2,8 km/h (1 Bft) N 360 -0,7 C 1,4 C 8,0 km/h (2 Bft)
03.12.2022 11:35 1,4 C 86 % 1021,5 hPa 0,0 l/m 3,5 km/h (1 Bft) N 360 -0,7 C 1,4 C 12,9 km/h (3 Bft)
03.12.2022 11:30 1,4 C 86 % 1021,5 hPa 0,0 l/m 1,8 km/h (1 Bft) N 360 -0,7 C 1,4 C 6,4 km/h (2 Bft)
03.12.2022 11:25 1,4 C 86 % 1021,5 hPa 0,0 l/m 0,9 km/h (0 Bft) N 360 -0,7 C 1,4 C 4,8 km/h (1 Bft)
03.12.2022 11:20 1,3 C 86 % 1021,6 hPa 0,0 l/m 3,9 km/h (1 Bft) O-NO 78 -0,8 C 1,3 C 8,0 km/h (2 Bft)
03.12.2022 11:15 1,3 C 86 % 1021,7 hPa 0,0 l/m 2,1 km/h (1 Bft) O-NO 65 -0,8 C 1,3 C 8,0 km/h (2 Bft)
03.12.2022 11:10 1,3 C 86 % 1021,7 hPa 0,0 l/m 3,6 km/h (1 Bft) O-NO 61 -0,8 C 1,3 C 8,0 km/h (2 Bft)
03.12.2022 11:05 1,3 C 87 % 1021,6 hPa 0,0 l/m 0,7 km/h (0 Bft) O 94 -0,6 C 1,3 C 3,2 km/h (1 Bft)
03.12.2022 11:00 1,3 C 86 % 1021,7 hPa 0,0 l/m 2,5 km/h (1 Bft) O 82 -0,8 C 1,3 C 6,4 km/h (2 Bft)
03.12.2022 10:55 1,3 C 86 % 1021,8 hPa 0,0 l/m 2,7 km/h (1 Bft) O 79 -0,8 C 1,3 C 6,4 km/h (2 Bft)
03.12.2022 10:50 1,3 C 87 % 1021,7 hPa 0,0 l/m 1,2 km/h (1 Bft) O 81 -0,6 C 1,3 C 6,4 km/h (2 Bft)
03.12.2022 10:45 1,2 C 87 % 1021,7 hPa 0,0 l/m 3,6 km/h (1 Bft) O 81 -0,7 C 1,2 C 8,0 km/h (2 Bft)
03.12.2022 10:40 1,2 C 87 % 1021,8 hPa 0,0 l/m 2,0 km/h (1 Bft) O-NO 74 -0,7 C 1,2 C 4,8 km/h (1 Bft)
03.12.2022 10:35 1,2 C 87 % 1021,7 hPa 0,0 l/m 2,6 km/h (1 Bft) O-NO 76 -0,7 C 1,2 C 8,0 km/h (2 Bft)
03.12.2022 10:30 1,2 C 87 % 1021,8 hPa 0,0 l/m 3,4 km/h (1 Bft) O-NO 71 -0,7 C 1,2 C 12,9 km/h (3 Bft)
03.12.2022 10:25 1,2 C 87 % 1021,8 hPa 0,0 l/m 2,8 km/h (1 Bft) O 81 -0,7 C 1,2 C 8,0 km/h (2 Bft)
03.12.2022 10:20 1,2 C 87 % 1021,8 hPa 0,0 l/m 2,1 km/h (1 Bft) O-NO 76 -0,7 C 1,2 C 8,0 km/h (2 Bft)
03.12.2022 10:15 1,2 C 87 % 1021,9 hPa 0,0 l/m 1,7 km/h (1 Bft) O-NO 70 -0,7 C 1,2 C 6,4 km/h (2 Bft)
03.12.2022 10:10 1,2 C 87 % 1021,8 hPa 0,0 l/m 1,7 km/h (1 Bft) O-NO 71 -0,7 C 1,2 C 6,4 km/h (2 Bft)
03.12.2022 10:05 1,2 C 87 % 1021,8 hPa 0,0 l/m 1,9 km/h (1 Bft) O-NO 72 -0,7 C 1,2 C 4,8 km/h (1 Bft)
03.12.2022 10:00 1,2 C 87 % 1021,9 hPa 0,0 l/m 1,8 km/h (1 Bft) O-NO 69 -0,7 C 1,2 C 6,4 km/h (2 Bft)
03.12.2022 09:55 1,2 C 87 % 1021,9 hPa 0,0 l/m 1,7 km/h (1 Bft) O-NO 71 -0,7 C 1,2 C 4,8 km/h (1 Bft)
03.12.2022 09:50 1,2 C 87 % 1021,9 hPa 0,0 l/m 2,9 km/h (1 Bft) O-NO 69 -0,7 C 1,2 C 8,0 km/h (2 Bft)
03.12.2022 09:45 1,2 C 87 % 1022,0 hPa 0,0 l/m 2,0 km/h (1 Bft) O-NO 67 -0,7 C 1,2 C 8,0 km/h (2 Bft)
03.12.2022 09:40 1,2 C 87 % 1021,9 hPa 0,0 l/m 2,4 km/h (1 Bft) O-NO 69 -0,7 C 1,2 C 6,4 km/h (2 Bft)
03.12.2022 09:35 1,2 C 87 % 1021,8 hPa 0,0 l/m 1,8 km/h (1 Bft) O-NO 71 -0,7 C 1,2 C 8,0 km/h (2 Bft)
03.12.2022 09:30 1,2 C 87 % 1021,9 hPa 0,0 l/m 1,3 km/h (1 Bft) O 80 -0,7 C 1,2 C 4,8 km/h (1 Bft)
03.12.2022 09:25 1,2 C 87 % 1021,9 hPa 0,0 l/m 0,8 km/h (0 Bft) O-NO 78 -0,7 C 1,2 C 4,8 km/h (1 Bft)
03.12.2022 09:20 1,2 C 87 % 1021,8 hPa 0,0 l/m 1,9 km/h (1 Bft) O-NO 78 -0,7 C 1,2 C 6,4 km/h (2 Bft)
03.12.2022 09:15 1,2 C 88 % 1021,8 hPa 0,0 l/m 0,9 km/h (0 Bft) O-NO 74 -0,6 C 1,2 C 4,8 km/h (1 Bft)
03.12.2022 09:10 1,2 C 88 % 1021,7 hPa 0,0 l/m 0,6 km/h (0 Bft) O-NO 77 -0,6 C 1,2 C 4,8 km/h (1 Bft)
03.12.2022 09:05 1,1 C 88 % 1021,7 hPa 0,0 l/m 1,9 km/h (1 Bft) O-NO 71 -0,7 C 1,1 C 6,4 km/h (2 Bft)
03.12.2022 09:00 1,1 C 88 % 1021,7 hPa 0,0 l/m 1,4 km/h (1 Bft) O 80 -0,7 C 1,1 C 4,8 km/h (1 Bft)
03.12.2022 08:55 1,1 C 87 % 1021,7 hPa 0,0 l/m 1,2 km/h (1 Bft) O 81 -0,8 C 1,1 C 4,8 km/h (1 Bft)
03.12.2022 08:50 1,1 C 87 % 1021,7 hPa 0,0 l/m 1,2 km/h (1 Bft) O-NO 76 -0,8 C 1,1 C 4,8 km/h (1 Bft)
03.12.2022 08:45 1,1 C 88 % 1021,7 hPa 0,0 l/m 1,2 km/h (1 Bft) O-NO 75 -0,7 C 1,1 C 3,2 km/h (1 Bft)
03.12.2022 08:40 1,1 C 88 % 1021,7 hPa 0,0 l/m 1,0 km/h (0 Bft) O-NO 75 -0,7 C 1,1 C 6,4 km/h (2 Bft)
03.12.2022 08:35 1,1 C 88 % 1021,7 hPa 0,0 l/m 1,7 km/h (1 Bft) O 80 -0,7 C 1,1 C 6,4 km/h (2 Bft)
03.12.2022 08:30 1,1 C 88 % 1021,7 hPa 0,0 l/m 1,4 km/h (1 Bft) O-NO 74 -0,7 C 1,1 C 4,8 km/h (1 Bft)
03.12.2022 08:25 1,1 C 87 % 1021,7 hPa 0,0 l/m 2,0 km/h (1 Bft) O-NO 72 -0,8 C 1,1 C 4,8 km/h (1 Bft)
03.12.2022 08:20 1,1 C 87 % 1021,7 hPa 0,0 l/m 1,1 km/h (1 Bft) O-NO 72 -0,8 C 1,1 C 4,8 km/h (1 Bft)
03.12.2022 08:15 1,1 C 87 % 1021,6 hPa 0,0 l/m 1,8 km/h (1 Bft) O-NO 73 -0,8 C 1,1 C 6,4 km/h (2 Bft)
03.12.2022 08:10 1,1 C 87 % 1021,7 hPa 0,0 l/m 0,8 km/h (0 Bft) O-NO 63 -0,8 C 1,1 C 6,4 km/h (2 Bft)
03.12.2022 08:05 1,1 C 87 % 1021,7 hPa 0,0 l/m 0,9 km/h (0 Bft) O 86 -0,8 C 1,1 C 4,8 km/h (1 Bft)
03.12.2022 08:00 1,1 C 87 % 1021,7 hPa 0,0 l/m 0,2 km/h (0 Bft) O 86 -0,8 C 1,1 C 3,2 km/h (1 Bft)
03.12.2022 07:55 1,2 C 87 % 1021,7 hPa 0,0 l/m 1,7 km/h (1 Bft) O 86 -0,7 C 1,2 C 4,8 km/h (1 Bft)
03.12.2022 07:50 1,1 C 87 % 1021,7 hPa 0,0 l/m 2,1 km/h (1 Bft) O 88 -0,8 C 1,1 C 6,4 km/h (2 Bft)
03.12.2022 07:45 1,1 C 87 % 1021,7 hPa 0,0 l/m 1,3 km/h (1 Bft) O 84 -0,8 C 1,1 C 4,8 km/h (1 Bft)
03.12.2022 07:40 1,2 C 87 % 1021,7 hPa 0,0 l/m 1,5 km/h (1 Bft) O 80 -0,7 C 1,2 C 4,8 km/h (1 Bft)
03.12.2022 07:35 1,1 C 87 % 1021,7 hPa 0,0 l/m 2,1 km/h (1 Bft) O 80 -0,8 C 1,1 C 4,8 km/h (1 Bft)
03.12.2022 07:30 1,2 C 87 % 1021,7 hPa 0,0 l/m 1,2 km/h (1 Bft) O-NO 76 -0,7 C 1,2 C 4,8 km/h (1 Bft)
03.12.2022 07:25 1,2 C 87 % 1021,7 hPa 0,0 l/m 2,0 km/h (1 Bft) O-NO 75 -0,7 C 1,2 C 4,8 km/h (1 Bft)
03.12.2022 07:20 1,2 C 87 % 1021,7 hPa 0,0 l/m 1,4 km/h (1 Bft) O-NO 74 -0,7 C 1,2 C 4,8 km/h (1 Bft)
03.12.2022 07:15 1,2 C 87 % 1021,7 hPa 0,0 l/m 1,7 km/h (1 Bft) O 83 -0,7 C 1,2 C 4,8 km/h (1 Bft)
03.12.2022 07:10 1,2 C 88 % 1021,8 hPa 0,0 l/m 1,6 km/h (1 Bft) O-NO 78 -0,6 C 1,2 C 4,8 km/h (1 Bft)
03.12.2022 07:05 1,2 C 88 % 1021,7 hPa 0,0 l/m 1,9 km/h (1 Bft) O 80 -0,6 C 1,2 C 6,4 km/h (2 Bft)
03.12.2022 07:00 1,2 C 88 % 1021,8 hPa 0,0 l/m 1,4 km/h (1 Bft) O 83 -0,6 C 1,2 C 6,4 km/h (2 Bft)
03.12.2022 06:55 1,2 C 88 % 1021,6 hPa 0,0 l/m 0,7 km/h (0 Bft) O 85 -0,6 C 1,2 C 3,2 km/h (1 Bft)
03.12.2022 06:50 1,2 C 87 % 1021,7 hPa 0,0 l/m 0,2 km/h (0 Bft) O 81 -0,7 C 1,2 C 3,2 km/h (1 Bft)
03.12.2022 06:45 1,2 C 88 % 1021,7 hPa 0,0 l/m 0,2 km/h (0 Bft) O 81 -0,6 C 1,2 C 1,6 km/h (1 Bft)
03.12.2022 06:40 1,2 C 88 % 1021,7 hPa 0,0 l/m 0,9 km/h (0 Bft) O 81 -0,6 C 1,2 C 4,8 km/h (1 Bft)
03.12.2022 06:35 1,2 C 88 % 1021,8 hPa 0,0 l/m 0,8 km/h (0 Bft) O 83 -0,6 C 1,2 C 3,2 km/h (1 Bft)
03.12.2022 06:30 1,2 C 88 % 1021,9 hPa 0,0 l/m 0,5 km/h (0 Bft) O 83 -0,6 C 1,2 C 4,8 km/h (1 Bft)
03.12.2022 06:25 1,2 C 88 % 1021,9 hPa 0,0 l/m 0,9 km/h (0 Bft) O 82 -0,6 C 1,2 C 4,8 km/h (1 Bft)
03.12.2022 06:20 1,2 C 88 % 1021,9 hPa 0,0 l/m 0,7 km/h (0 Bft) O 84 -0,6 C 1,2 C 3,2 km/h (1 Bft)
03.12.2022 06:15 1,3 C 88 % 1021,9 hPa 0,0 l/m 0,8 km/h (0 Bft) O 81 -0,5 C 1,3 C 4,8 km/h (1 Bft)
03.12.2022 06:10 1,3 C 87 % 1021,9 hPa 0,0 l/m 0,6 km/h (0 Bft) O 86 -0,6 C 1,3 C 3,2 km/h (1 Bft)
03.12.2022 06:05 1,3 C 87 % 1021,9 hPa 0,0 l/m 0,6 km/h (0 Bft) O 82 -0,6 C 1,3 C 3,2 km/h (1 Bft)
03.12.2022 06:00 1,3 C 88 % 1021,9 hPa 0,0 l/m 0,8 km/h (0 Bft) O 80 -0,5 C 1,3 C 4,8 km/h (1 Bft)
03.12.2022 05:55 1,3 C 88 % 1021,8 hPa 0,0 l/m 0,6 km/h (0 Bft) O 80 -0,5 C 1,3 C 3,2 km/h (1 Bft)
03.12.2022 05:50 1,3 C 88 % 1022,0 hPa 0,0 l/m 0,6 km/h (0 Bft) O 79 -0,5 C 1,3 C 3,2 km/h (1 Bft)
03.12.2022 05:45 1,3 C 88 % 1021,9 hPa 0,0 l/m 2,3 km/h (1 Bft) O-NO 71 -0,5 C 1,3 C 6,4 km/h (2 Bft)
03.12.2022 05:40 1,3 C 88 % 1022,1 hPa 0,0 l/m 2,7 km/h (1 Bft) O 101 -0,5 C 1,3 C 6,4 km/h (2 Bft)
03.12.2022 05:35 1,3 C 88 % 1022,1 hPa 0,0 l/m 1,7 km/h (1 Bft) O 86 -0,5 C 1,3 C 4,8 km/h (1 Bft)
03.12.2022 05:30 1,3 C 88 % 1022,1 hPa 0,0 l/m 1,7 km/h (1 Bft) O 82 -0,5 C 1,3 C 6,4 km/h (2 Bft)
03.12.2022 05:25 1,3 C 88 % 1022,2 hPa 0,0 l/m 1,8 km/h (1 Bft) O-NO 74 -0,5 C 1,3 C 6,4 km/h (2 Bft)
03.12.2022 05:20 1,3 C 88 % 1022,2 hPa 0,0 l/m 1,1 km/h (1 Bft) O-NO 65 -0,5 C 1,3 C 8,0 km/h (2 Bft)
03.12.2022 05:15 1,3 C 88 % 1022,1 hPa 0,0 l/m 2,8 km/h (1 Bft) O-NO 74 -0,5 C 1,3 C 8,0 km/h (2 Bft)
03.12.2022 05:10 1,3 C 88 % 1022,1 hPa 0,0 l/m 1,7 km/h (1 Bft) O 97 -0,5 C 1,3 C 9,7 km/h (2 Bft)
03.12.2022 05:05 1,3 C 88 % 1022,2 hPa 0,0 l/m 1,1 km/h (1 Bft) O-NO 65 -0,5 C 1,3 C 4,8 km/h (1 Bft)
03.12.2022 05:00 1,3 C 88 % 1022,2 hPa 0,0 l/m 0,8 km/h (0 Bft) O-SO 108 -0,5 C 1,3 C 3,2 km/h (1 Bft)
_ Min-Zeit 07:00 02:45 02:55 - 16:20 - - 04:10 07:35 18:05
Minimum _ 1,1 C 84 % 1017,4 hPa - 0,0 km/h (0 Bft) - - -1,3 C 1,1 C 0,0 km/h (0 Bft)
_ Max-Zeit 14:45 05:00 05:00 05:00 01:25 - - 18:10 14:15 01:30
Maximum _ 2,2 C 88 % 1022,2 hPa 0,0 l/m 4,5 km/h
O-SO (1 Bft)
- - 0,1 C 2,1 C 14,5 km/h
O-SO (3 Bft)
Durchschnitt _ 1,6 C 87 % 1020,0 hPa #0,0 l/m 1,5 km/h (1 Bft) O-SO - -0,4 C 1,6 C 5,4 km/h (2 Bft)
www.klaudt.eu